Location: Avully
(45.9633°N, 6.0228°E)
Time: 06:31:21
(UTC+00:00)

CZ-2D R/B - Pass Details

Date: 23 May 2024
Orbit: 790 x 843 km, 98.8° (Epoch: 19 June)

Event Time Altitude Azimuth Distance (km) Brightness Sun altitude
Rises 00:11:57 0° 30° (NNE) 3,409 6.5 -22.8°
Reaches altitude 10° 00:15:22 10° 52° (NE) 2,464 5.2 -22.7°
Maximum altitude 00:18:34 16° 89° (E) 2,078 4.4 -22.6°
Enters shadow 00:21:27 11° 122° (ESE) 2,382 4.3 -22.5°
